[Iaude] MPEC V63: 2023 VT1 [a=1.88,e=0.47,i=1.8,H=25.0]
    mpec at marsden.cfa.harvard.edu 
    mpec at marsden.cfa.harvard.edu
       
    Mon Nov  6 06:55:19 EST 2023
    
    
  
M.P.E.C. 2023-V63                              Issued 2023 November 6, 11:53 UT
     The Minor Planet Electronic Circulars contain information on unusual
         minor planets, routine data on comets and natural satellites,
         and occasional editorial announcements.  They are published
    on behalf of Division F of the International Astronomical Union by the
          Minor Planet Center, Smithsonian Astrophysical Observatory,
                          Cambridge, MA 02138, U.S.A.
			  
             Prepared using the Tamkin Foundation Computer Network
                              MPC at CFA.HARVARD.EDU
            URL https://www.minorplanetcenter.net/    ISSN 1523-6714
                                    2023 VT1                                    
Observations:
     K23V01T* C2023 11 04.47283803 39 33.454+00 53 44.55         21.55wXEV063F52
     K23V01T  C2023 11 04.48533603 39 38.322+00 53 25.76         21.41wXEV063F52
     K23V01T  C2023 11 04.49779703 39 43.170+00 53 07.27         21.09wXEV063F52
     K23V01T  C2023 11 04.51016903 39 48.010+00 52 48.43         20.79wXEV063F52
     K23V01T  C2023 11 04.57075603 40 11.981+00 51 16.64         20.89GVEV063F51
     K23V01T  C2023 11 04.57157003 40 12.321+00 51 15.27         21.21GVEV063F51
     K23V01T KC2023 11 05.26997603 45 25.340+00 33 01.22         20.71GVEV063I52
     K23V01T KC2023 11 05.27158703 45 26.064+00 32 58.96         20.37GVEV063I52
     K23V01T KC2023 11 05.27321103 45 26.752+00 32 56.26         20.61GVEV063I52
     K23V01T KC2023 11 05.27482003 45 27.421+00 32 53.41         20.54GVEV063I52
     K23V01T  C2023 11 05.47531103 46 56.048+00 27 54.40         20.42GVEV063F51
     K23V01T  C2023 11 05.47854003 46 57.411+00 27 49.38         20.67GVEV063F51
     K23V01T 1C2023 11 06.37960803 54 02.491+00 03 00.94               VEV063G96
     K23V01T 1C2023 11 06.38481003 54 04.856+00 02 52.80         20.50GVEV063G96
     K23V01T 1C2023 11 06.39002603 54 07.240+00 02 43.66         20.76GVEV063G96
     K23V01T 1C2023 11 06.39524603 54 09.644+00 02 34.91         20.39GVEV063G96
Observer details:
F51 Pan-STARRS 1, Haleakala.  Observers J. Bulger, T. Lowe, P. Minguez, A.
    Schultz, I. Smith.  Measurers K. Chambers, T. de Boer, J. Fairlamb, H.
    Gao, M. Huber, C.-C. Lin, E. Magnier, Y. Ramanjooloo, R. Wainscoat, R.
    Weryk.  1.8-m Ritchey-Chretien + CCD.
F52 Pan-STARRS 2, Haleakala.  Observers J. Bulger, T. Lowe, P. Minguez, A.
    Schultz, I. Smith.  Measurers K. Chambers, T. de Boer, J. Fairlamb, H.
    Gao, M. Huber, C.-C. Lin, E. Magnier, Y. Ramanjooloo, R. Wainscoat, R.
    Weryk.  1.8-m Ritchey-Chretien + CCD.
G96 Mt. Lemmon Survey.  Observer J. B. Fazekas.  Measurers E. C. Beshore, D.
    Fay, J. B. Fazekas, D. C. Fuls, A. R. Gibbs, A. D. Grauer, H. Groeller, J.
    K. Hogan, R. A. Kowalski, S. M. Larson, G. J. Leonard, D. Rankin, R. L.
    Seaman, F. C. Shelly, K. W. Wierzchos.  1.5-m reflector + 10K CCD.
I52 Steward Observatory, Mt. Lemmon Station.  Observer R. A. Kowalski.
    Measurers E. C. Beshore, D. Fay, J. B. Fazekas, D. C. Fuls, A. R. Gibbs,
    A. D. Grauer, H. Groeller, J. K. Hogan, R. A. Kowalski, S. M. Larson, G.
    J. Leonard, D. Rankin, R. L. Seaman, F. C. Shelly, K. W. Wierzchos.  1.0-m
    prime focus + CCD.
Orbital elements:
2023 VT1                                                 Earth MOID = 0.0324 AU
Epoch 2023 Sept. 13.0 TT = JDT 2460200.5                Veres                   
M 326.34205              (2000.0)            P               Q                  
n   0.38179718     Peri.  282.83524     +0.12360139     -0.99227601             
a   1.8818322      Node   160.05560     +0.92200733     +0.11090956             
e   0.4695631      Incl.    1.77010     +0.36691305     +0.05556431             
P   2.58           H   25.00          G   0.15           U   8                  
Residuals in seconds of arc
231104 F52  0.2+  0.1-    231105 I52  0.6-  0.2-    231106 G96  0.3-  0.2-
231104 F52  0.1+  0.0     231105 I52  0.1+  0.1+    231106 G96  0.2-  0.4+
231104 F52  0.2-  0.3+    231105 I52  0.2+  0.1-    231106 G96  0.0   0.0
231104 F52  0.2-  0.1+    231105 I52  0.1+  0.4-    231106 G96  0.4+  0.0
231104 F51  0.1-  0.0     231105 F51  0.1+  0.2+
231104 F51  0.1+  0.1-    231105 F51  0.2+  0.3+
Ephemeris:
2023 VT1                 a,e,i = 1.88, 0.47, 2                   q = 0.9982
Date    TT    R. A. (2000) Decl.     Delta      r    Elong.  Phase     V
2023 10 07    02 04 40.8 +06 58 10   0.2442  1.2331   160.9    15.3    23.2
...
2023 10 22    02 36 49.3 +04 51 53   0.1554  1.1466   165.7    12.4    22.0
...
2023 10 30    03 07 17.9 +02 52 01   0.1172  1.1059   163.2    15.1    21.4
...
2023 11 05    03 43 22.1 +00 40 54   0.09304 1.0786   158.2    20.0    21.0
2023 11 06    03 51 00.5 +00 14 23   0.08948 1.0744   157.0    21.1    20.9
2023 11 07    03 59 12.9 -00 13 38   0.08606 1.0703   155.7    22.4    20.9
...
2023 11 13    05 02 20.9 -03 32 33   0.06936 1.0475   145.1    32.7    20.7
...
2023 11 21    07 01 38.4 -08 10 23   0.06096 1.0232   123.8    53.4    20.9
...
2023 12 06    10 01 51.6 -09 45 53   0.08736 0.9993    96.6    78.4    22.4
M. P. C. Staff               (C) Copyright 2023 MPC           M.P.E.C. 2023-V63
    
    
More information about the Iaude
mailing list